Location: ???????
(52.3000°N, 54.4667°E)
Time: 16:44:29
(UTC+00:00)

Meteor 2-12 Rocket - Pass Details

Date: 24 January 2020
Orbit: 936 x 957 km, 82.5° (Epoch: 18 February)

Event Time Altitude Azimuth Distance (km) Brightness Sun altitude
Rises 15:03:27 0° 174° (S) 3,584 7.5 -19.5°
Reaches altitude 10° 15:05:58 10° 170° (S) 2,643 6.7 -19.9°
Maximum altitude 15:11:50 57° 94° (E) 1,096 4.4 -20.8°
Drops below altitude 10° 15:17:46 10° 17° (NNE) 2,663 6.6 -21.7°
Sets 15:20:18 0° 14° (NNE) 3,613 7.3 -22.1°
